{"data":{"norad_id":46047,"intl_designator":"2020-055W","name":"STARLINK-1524","alt_names":[],"object_type":"PAYLOAD","status":"ACTIVE","operator":null,"country":"US","launch_date":"2020-08-07","launch_site_code":"AFETR","launch_vehicle":null,"mission":null,"orbit_class":"UNKNOWN","rcs_meters":null,"size_class":null,"mass_kg":null,"dimensions":null,"purposes":["comms"],"wikipedia_slug":null,"has_3d_model":false,"image_url":null,"decayed_at":null,"tle_current":{"epoch":"2026-05-25T02:40:15.779136Z","epoch_age_seconds":64891,"freshness":"FRESH","line1":"1 46047U 20055W   26145.11129374  .00000996  00000+0  43868-4 0  9995","line2":"2 46047  53.1605 118.5802 0001332 102.3416 257.7734 15.31701433320776","mean_motion":15.31701433,"eccentricity":0.0001332,"inclination_deg":53.1605,"raan_deg":118.5802,"arg_perigee_deg":102.3416,"mean_anomaly_deg":257.7734,"bstar":4.3868e-5,"rev_number":32077,"period_min":94.013100006024,"perigee_km":469.82345368377,"apogee_km":471.64799337732,"semimajor_km":6848.8727235305,"source":"CELESTRAK","updated_at":"2026-05-25T13:38:16.460671Z"}}}